Wind_Speed
14 12 13 13 10 6 4 4 4 5 10 13 12 11 12 17 21 19 19 25 30 29 28 27 26 27 28 28 28 26 23 22 21 20 19 18 16 17 22 28 30 27 24 25 25 24 24 23 23 24 24 24 24 23 21 19 19 18 18 18 17 17 17
11 11 11 11 13 12 7 3 6 9 12 12 13 13 9 12 19 20 18 20 22 25 28 27 24 24 26 29 31 28 25 22 20 20 19 17 16 16 17 21 25 27 27 26 26 26 26 24 25 25 25 26 27 25 23 21 20 20 19 18 18 18 18
10 10 10 9 12 14 12 10 10 11 10 9 11 14 12 10 14 17 16 16 20 24 26 25 23 23 24 26 29 29 27 23 19 19 20 18 16 15 17 19 19 23 28 29 28 28 28 27 26 26 26 27 28 27 26 24 21 20 20 20 20 20 19
6 7 6 4 7 11 15 16 11 11 13 8 9 14 13 12 12 12 12 14 23 28 27 25 24 24 25 25 27 28 29 26 19 17 20 21 18 14 15 18 18 19 23 29 31 28 29 29 26 25 26 26 27 26 25 25 24 23 22 21 22 21 21
7 4 6 5 8 11 11 12 11 12 12 8 10 13 12 13 13 11 13 18 26 28 27 26 24 24 26 27 27 26 27 27 22 18 19 21 21 18 16 16 17 15 16 25 34 32 30 29 28 29 30 29 26 24 24 25 26 26 25 24 24 23 22
7 9 11 6 10 14 12 11 12 13 11 9 12 11 10 12 12 12 14 19 26 27 25 25 23 24 27 27 29 26 24 26 25 23 21 21 23 23 19 17 16 15 13 18 30 36 34 32 31 32 33 31 29 27 28 28 26 26 26 25 26 26 23
9 12 11 8 11 14 16 15 15 15 13 12 12 12 12 13 13 14 13 17 28 29 25 24 24 25 28 28 29 27 25 26 26 26 25 23 24 24 23 21 17 17 15 15 21 30 36 36 34 33 33 32 31 31 31 29 27 26 25 25 27 28 26
14 13 12 13 14 15 16 17 18 19 17 16 16 16 17 17 17 17 14 18 27 27 23 24 25 26 28 29 30 28 26 27 27 27 26 24 24 24 24 24 21 19 19 17 17 22 31 37 37 36 36 35 32 32 32 30 29 28 26 26 29 29 28
9 11 11 11 13 15 16 16 18 19 18 19 20 19 20 21 21 20 17 19 24 25 25 25 26 28 29 29 30 28 27 27 28 29 28 26 25 25 24 24 23 23 22 21 20 19 24 33 38 37 37 38 35 33 32 31 30 29 28 28 29 28 29
6 10 13 12 12 12 12 14 18 20 19 20 21 21 22 23 24 24 24 24 24 24 25 26 27 30 32 32 31 30 28 28 28 29 29 27 25 25 25 23 23 24 24 24 23 21 21 26 34 36 35 37 37 35 34 34 32 30 29 28 28 28 29
13 16 18 17 16 13 11 13 16 19 20 20 21 22 23 25 25 25 28 29 27 25 26 27 27 28 30 33 33 31 29 28 29 29 29 26 22 20 21 21 21 23 24 26 26 24 22 20 26 34 35 36 36 36 36 36 34 33 31 30 30 29 29
18 19 19 18 18 18 18 17 18 20 21 20 21 22 24 26 26 26 29 29 29 30 28 24 23 24 27 31 33 32 30 30 29 29 29 27 21 18 18 20 22 23 25 27 28 27 24 21 21 26 31 34 36 37 38 37 36 35 33 31 31 30 29
19 20 19 19 19 19 20 20 20 21 21 21 22 22 25 27 26 28 30 28 28 31 28 21 18 19 23 28 31 31 31 32 32 29 27 26 22 20 19 20 22 23 24 27 28 28 27 26 23 22 23 25 27 32 37 40 38 36 34 33 32 32 31
18 18 18 18 18 19 20 19 19 20 20 21 22 23 25 27 26 27 30 30 29 28 28 26 23 19 20 24 28 30 31 35 36 31 28 26 23 22 20 19 22 23 24 26 27 26 26 26 27 26 24 22 21 23 30 37 40 38 36 35 34 34 33
17 18 17 16 17 17 17 18 18 19 19 20 21 22 24 24 26 27 28 31 32 27 26 27 25 22 21 22 24 26 30 36 37 32 31 30 29 27 24 23 24 24 25 26 27 25 23 23 25 28 28 26 24 22 25 32 41 43 39 37 36 36 36
13 15 16 15 16 16 16 17 18 18 19 20 19 20 21 21 24 27 27 28 30 26 24 25 24 23 22 22 23 24 26 33 34 31 32 33 30 28 28 27 27 26 25 26 25 24 23 22 23 26 28 27 25 24 24 29 40 47 45 42 40 38 38
6 9 14 15 15 15 15 17 18 17 19 19 17 17 17 17 20 24 25 26 26 24 24 24 23 22 22 23 24 22 23 28 30 29 29 29 27 27 28 29 28 26 23 23 22 23 23 22 22 24 27 28 27 26 25 26 35 47 49 44 41 39 39
8 10 15 15 15 15 16 17 17 16 17 16 16 17 17 17 19 21 22 24 24 23 24 23 21 21 22 24 24 24 24 25 27 27 27 27 28 30 31 31 31 29 24 22 21 22 22 22 22 22 23 25 27 27 25 23 25 41 50 45 40 39 40
13 13 14 14 16 17 18 18 17 16 16 16 17 19 19 19 21 21 21 22 22 22 23 23 22 21 22 24 24 25 26 25 24 26 28 30 31 32 31 30 30 29 26 23 22 22 21 20 20 20 20 21 23 25 26 23 19 27 43 46 42 39 38
19 17 15 16 17 18 19 19 18 16 16 16 17 19 19 20 21 21 21 22 21 21 21 23 23 22 22 24 24 23 24 28 29 27 29 34 35 33 32 29 25 23 22 21 19 18 18 18 17 17 17 17 18 21 24 25 21 18 25 35 39 38 37
21 18 17 18 18 19 22 22 19 17 16 15 16 17 17 20 21 20 19 20 20 20 20 21 21 21 22 24 24 22 21 29 35 28 25 35 38 36 35 29 20 17 18 19 17 14 14 14 14 15 15 14 15 16 19 22 23 21 18 18 22 27 28
20 19 18 17 15 17 22 22 18 16 15 14 15 16 17 19 20 19 18 19 19 18 19 20 20 21 21 22 24 25 23 28 34 29 21 31 36 35 32 24 18 17 17 16 14 12 11 11 12 13 13 13 13 14 15 17 20 23 23 19 16 16 17
20 20 19 17 15 19 22 21 19 17 16 15 15 17 18 19 20 19 18 17 16 17 18 19 19 20 21 20 21 26 28 28 29 26 22 26 28 27 26 22 19 19 19 17 15 13 11 11 11 12 12 12 13 13 13 15 17 19 22 22 20 19 19
21 21 20 17 18 21 21 20 19 18 16 16 16 17 18 19 19 19 19 18 18 17 17 17 19 20 20 20 19 22 27 29 27 24 23 26 27 26 25 24 22 21 20 19 18 16 14 13 13 12 11 11 12 13 14 15 16 17 20 22 22 21 21
20 20 20 19 20 21 20 20 20 18 17 17 17 17 19 19 20 19 19 18 19 19 17 16 18 19 19 20 19 19 21 24 25 25 23 24 27 28 27 26 24 23 22 21 20 18 18 16 15 14 13 13 13 14 14 15 16 17 18 20 21 22 22
20 18 19 20 21 21 20 19 19 17 17 19 18 17 18 19 19 20 18 17 17 18 17 16 17 18 18 18 18 19 20 20 21 23 23 23 25 27 27 26 25 24 23 22 21 21 20 19 18 17 16 15 15 15 15 15 16 17 17 19 21 23 23
22 20 19 21 23 23 20 18 18 18 19 20 18 18 18 18 18 19 19 17 16 15 15 16 17 17 17 18 18 18 19 20 21 23 24 25 26 27 25 23 24 25 24 23 23 22 22 21 21 20 18 17 16 16 16 17 17 17 17 18 20 22 24
22 21 22 22 23 22 19 18 19 19 19 20 19 18 18 18 18 19 19 18 17 16 16 16 17 16 16 17 18 19 19 20 22 23 24 25 28 29 28 27 26 27 26 25 25 24 24 23 22 21 20 19 18 17 18 19 19 19 18 19 20 21 23
22 23 23 22 21 20 18 18 19 19 18 18 18 18 18 18 18 19 18 18 17 17 16 16 16 16 16 16 18 19 20 20 22 23 23 23 24 26 28 28 29 28 28 28 27 25 24 24 23 22 21 20 19 19 20 21 22 21 21 21 21 21 22
22 23 24 22 21 20 18 17 18 18 18 18 17 18 18 18 19 19 18 17 15 14 14 14 15 15 16 17 17 18 19 21 22 23 23 23 23 24 25 26 27 28 28 28 28 26 25 24 23 22 22 21 20 20 20 22 24 24 24 24 23 23 24
23 24 24 23 22 21 19 18 19 19 18 18 18 18 18 18 18 18 18 16 15 13 12 13 14 14 15 16 16 16 16 19 22 25 26 26 26 27 27 26 27 27 28 28 28 28 27 25 24 23 22 21 21 21 21 23 25 26 26 26 26 26 26
25 26 24 22 22 21 19 19 19 19 19 19 18 18 18 17 17 17 17 16 15 13 12 12 12 12 13 14 14 14 13 14 18 22 24 25 26 27 28 29 28 28 29 29 28 28 27 26 25 24 22 22 22 22 23 23 24 26 27 27 27 28 27
25 26 25 23 23 22 20 19 19 19 18 17 17 17 16 16 16 16 16 15 14 13 12 12 12 11 11 11 12 12 11 10 12 14 18 20 21 23 25 26 27 28 28 28 27 27 26 26 25 24 23 22 22 23 24 24 24 25 26 27 28 28 28
21 24 24 23 23 23 21 20 19 18 17 16 15 15 14 14 14 15 15 15 14 14 13 12 12 11 11 11 11 10 10 9 9 10 12 14 15 17 19 21 23 24 25 26 25 25 25 24 24 23 23 23 23 23 24 24 23 23 24 26 26 27 27
21 22 22 21 22 22 21 20 19 17 16 15 14 14 14 13 13 13 14 14 14 13 13 12 12 12 11 11 11 10 10 10 10 10 10 11 12 13 14 15 17 18 20 21 21 21 21 21 22 22 23 22 22 23 23 23 23 23 23 24 25 26 26
23 22 20 19 20 21 20 19 18 17 15 15 15 14 14 13 13 12 12 12 12 12 12 12 12 12 12 11 11 11 11 11 11 11 10 10 11 11 12 12 13 14 15 16 16 17 18 18 19 20 21 21 22 21 22 22 23 23 23 23 24 24 25
24 23 21 20 21 21 19 18 17 17 16 15 15 15 14 13 13 12 11 11 11 11 11 11 11 11 11 11 11 11 11 11 11 11 11 10 10 11 11 11 11 12 12 13 13 14 14 15 16 17 18 18 19 19 20 20 21 22 23 23 23 23 24
Wind_Direction
247 232 238 233 219 197 189 219 231 250 242 233 232 242 258 247 225 224 241 242 237 241 245 242 244 249 247 246 248 245 243 243 243 248 249 251 257 249 235 228 223 217 214 218 224 226 227 227 225 227 228 230 231 226 222 224 227 227 228 229 227 225 225
257 251 238 233 232 214 177 183 212 226 245 244 237 233 240 248 234 229 246 257 252 248 245 242 246 252 246 240 245 247 243 242 242 246 248 245 249 251 242 233 226 220 216 215 219 223 225 226 226 227 228 230 232 231 226 225 227 228 229 232 231 228 229
278 267 242 240 246 227 216 236 221 209 240 267 263 250 237 245 250 242 246 258 260 252 243 240 245 253 250 239 240 245 244 241 237 241 245 241 244 251 247 242 235 232 228 220 215 218 222 226 229 229 230 230 231 232 230 227 225 226 227 230 231 230 231
299 275 249 226 255 245 232 239 240 232 241 257 274 265 242 231 247 253 248 248 253 252 251 251 249 251 251 241 236 241 244 244 240 239 243 241 243 255 257 245 239 247 244 226 217 217 222 227 229 230 231 231 231 232 233 229 225 225 226 227 230 230 230
14 277 241 189 212 230 224 219 222 235 245 244 248 254 247 241 245 247 241 242 249 254 257 259 252 245 245 237 232 236 241 244 244 240 242 241 237 243 261 255 239 249 252 230 223 221 221 223 223 224 230 231 230 231 232 232 231 230 229 228 229 230 231
353 244 236 230 218 227 236 232 223 226 235 242 243 246 250 251 252 251 246 247 254 258 257 256 248 239 239 232 227 231 235 241 245 243 243 244 239 239 254 261 245 245 251 240 232 226 222 223 221 224 231 231 229 229 231 234 234 233 234 233 232 231 230
274 249 245 257 241 239 247 248 243 240 239 243 246 239 232 232 238 246 251 253 255 255 253 253 246 238 236 231 227 228 231 237 242 244 244 247 247 244 250 258 254 248 249 250 244 232 227 229 227 227 232 233 232 233 235 236 235 235 236 236 237 234 229
265 267 264 256 243 240 245 247 245 244 244 245 245 241 236 234 232 234 241 251 254 254 251 249 246 242 238 234 230 227 231 237 239 241 244 246 249 248 250 255 255 253 251 251 250 240 235 235 234 231 230 231 233 235 238 240 239 238 234 233 239 240 235
273 277 269 262 250 238 239 245 241 238 240 243 245 247 246 243 239 236 240 248 252 254 250 246 246 246 242 240 238 232 232 238 239 239 241 243 247 249 252 255 253 252 255 256 257 255 247 242 239 235 230 228 230 232 237 240 241 242 238 236 240 242 240
233 254 248 247 251 242 235 240 240 239 243 243 243 247 249 249 246 244 245 248 249 251 250 247 247 247 243 243 246 243 238 237 238 239 240 242 245 248 251 255 255 254 256 261 263 263 260 251 241 234 229 226 228 230 235 238 240 242 243 243 243 243 244
222 236 240 243 254 259 254 250 245 243 246 247 246 247 249 251 249 247 248 249 250 254 257 253 247 245 243 242 245 250 250 244 239 237 238 240 245 251 256 260 262 261 261 266 269 267 266 260 244 235 231 228 228 231 234 236 238 239 242 244 244 246 249
237 242 246 249 255 258 258 258 255 250 249 249 249 249 250 251 251 250 249 250 252 256 261 262 254 247 245 243 243 249 254 248 240 236 236 239 245 253 262 266 268 269 268 269 275 275 271 263 249 240 237 235 234 235 236 236 236 237 239 240 239 241 247
243 249 251 251 253 254 255 257 256 254 253 253 252 252 252 251 252 253 252 254 256 256 258 268 271 258 248 244 243 247 249 243 236 234 234 237 242 248 257 266 269 272 273 274 279 284 283 275 264 253 246 242 242 243 241 238 236 236 238 239 238 237 239
249 253 254 255 255 254 254 255 255 255 255 255 256 256 256 255 254 255 255 256 257 255 256 263 269 263 250 243 242 245 243 236 232 232 232 232 237 241 247 260 268 271 274 276 280 284 288 288 282 274 268 262 259 256 248 240 236 235 236 238 238 237 237
255 257 255 256 256 256 259 259 258 259 258 257 259 258 259 261 260 257 256 257 258 257 257 261 262 257 248 241 239 240 235 228 225 226 229 232 237 240 243 252 261 267 271 272 275 278 281 284 284 281 277 272 268 267 259 244 236 234 233 235 237 235 235
262 261 252 253 256 260 267 267 263 263 261 259 261 260 260 264 266 265 263 261 261 260 259 260 257 251 245 237 234 237 233 226 223 224 228 230 233 237 241 247 252 258 262 264 268 272 275 277 280 280 278 274 269 267 266 254 239 231 230 232 234 235 235
248 252 246 251 261 265 271 271 266 266 265 262 263 265 266 268 270 271 270 269 269 267 264 261 254 248 244 234 228 230 231 227 224 225 227 227 229 234 239 243 245 245 248 254 262 269 273 277 281 283 281 278 274 270 272 267 244 229 227 229 231 233 236
219 243 251 258 265 265 265 266 265 265 265 266 267 268 273 276 275 274 275 275 273 268 265 264 259 251 244 239 232 227 226 226 224 224 225 225 228 233 235 234 233 232 234 244 257 266 273 278 281 284 284 282 280 273 273 278 256 229 224 229 232 232 234
227 249 261 262 262 261 261 263 265 266 267 269 271 272 275 278 277 278 280 280 277 270 263 262 263 256 246 243 240 231 228 225 220 220 223 223 225 228 224 218 217 221 230 242 253 261 270 279 283 287 289 287 286 280 272 275 270 236 225 228 235 237 237
234 249 260 257 256 260 262 261 262 266 269 268 270 273 275 276 277 280 282 281 278 273 264 257 258 257 249 245 242 238 232 223 218 220 218 218 223 223 214 206 205 214 227 239 247 255 265 277 285 292 297 295 292 290 278 270 271 257 234 230 232 235 237
236 245 253 255 257 264 266 265 264 267 269 269 270 272 273 275 276 277 281 282 280 275 267 257 254 254 251 246 241 241 234 222 225 232 214 202 207 208 203 206 216 225 234 240 243 252 262 274 286 293 299 301 297 295 290 277 269 265 259 247 235 231 232
237 240 249 256 259 260 262 265 265 265 267 270 273 273 273 276 276 277 281 283 281 277 268 260 254 250 249 246 239 239 236 226 231 239 215 190 190 194 201 219 236 237 239 241 241 249 258 267 282 289 294 301 300 296 291 284 274 266 264 268 265 255 249
238 240 244 251 254 252 255 260 263 262 264 268 271 273 275 276 277 279 282 281 278 277 271 261 255 248 245 246 241 237 236 234 236 239 223 200 197 204 216 226 227 225 230 233 235 241 247 254 268 278 285 291 296 296 291 284 279 272 266 267 273 277 280
239 242 242 247 254 255 256 259 259 260 264 268 269 272 273 275 277 279 282 284 284 285 279 265 256 249 243 245 244 235 233 234 238 241 234 220 216 218 219 216 214 217 222 226 231 237 240 246 254 260 269 278 283 289 291 287 282 277 270 269 271 276 284
238 246 246 245 253 259 259 259 259 260 264 265 264 264 266 271 277 277 280 286 288 288 284 269 258 253 247 246 246 240 236 236 238 243 243 231 219 211 206 205 208 211 216 222 230 235 238 243 246 248 255 266 273 278 282 284 283 280 276 273 272 273 278
232 242 244 242 249 255 256 257 259 257 258 260 262 264 266 271 276 277 280 284 286 287 283 271 262 260 257 254 249 242 239 237 234 236 237 232 221 211 204 204 207 211 218 224 229 234 239 242 244 245 250 259 264 266 269 272 275 277 276 276 275 274 275
232 240 245 245 249 253 254 256 257 253 253 256 261 265 270 274 277 278 279 281 281 281 277 270 268 266 261 256 251 244 240 236 231 230 229 228 226 223 219 218 218 220 225 229 232 237 241 245 247 247 251 258 260 257 257 260 263 266 268 269 271 272 274
231 237 242 245 250 255 255 255 255 254 254 258 262 266 272 276 276 277 279 281 281 282 281 280 278 271 261 257 252 245 241 238 232 228 227 227 227 229 231 231 229 228 230 234 238 240 242 245 248 250 254 259 259 254 250 250 253 256 258 259 263 266 269
231 233 238 243 248 253 254 254 255 256 257 261 266 271 275 277 278 278 279 281 282 284 286 285 280 270 262 258 254 246 241 238 233 230 230 230 228 228 228 228 228 229 232 236 239 241 243 245 248 252 257 260 259 255 250 247 247 248 249 251 254 257 261
234 236 240 242 246 250 253 255 256 256 258 261 265 269 273 275 276 276 276 277 280 282 281 277 272 267 260 255 254 251 244 239 234 232 233 234 232 229 227 227 228 229 232 236 239 242 245 247 249 253 257 260 260 256 251 248 247 245 244 245 247 249 253
237 241 243 242 245 250 254 256 256 256 258 260 263 266 269 271 273 273 273 274 276 278 276 270 266 262 257 252 253 254 249 241 235 233 234 237 235 231 229 230 232 233 235 238 242 245 247 250 252 254 256 259 260 257 252 250 249 246 244 244 245 247 249
240 243 245 246 249 252 254 255 254 253 256 259 263 266 267 267 268 269 268 269 271 273 272 269 264 259 255 252 251 253 252 245 238 235 236 239 238 234 232 232 234 237 239 241 244 247 249 251 252 254 255 257 258 256 254 252 250 248 247 246 246 247 248
241 243 245 247 249 250 251 251 250 249 252 258 261 262 263 264 266 267 266 266 267 269 269 266 263 259 254 251 250 252 254 252 246 240 239 239 238 237 236 235 236 238 241 243 244 245 247 249 251 253 254 253 253 254 254 254 252 251 251 251 251 251 251
243 245 244 243 244 246 246 245 245 247 250 253 255 256 259 263 265 266 266 264 264 265 265 263 260 258 254 250 247 246 247 248 247 243 240 237 236 236 236 236 237 238 240 241 241 241 243 245 247 250 251 251 251 251 253 255 256 255 254 255 255 256 256
238 242 242 239 240 243 242 240 241 245 248 249 251 253 256 260 263 264 262 261 261 262 261 260 259 256 252 248 244 239 236 234 233 234 234 233 232 232 232 233 234 234 235 236 236 237 240 242 245 247 249 250 251 252 254 258 260 261 260 259 259 260 261
237 241 243 241 241 240 239 237 240 243 245 245 246 249 253 256 259 259 258 257 257 258 258 257 256 255 252 248 243 239 233 228 226 227 228 229 230 231 230 230 231 232 232 233 234 236 238 240 244 246 249 252 254 257 260 262 266 268 269 268 267 267 268
239 242 242 241 241 239 236 234 238 242 242 241 242 244 248 251 252 253 253 253 254 255 256 255 254 253 251 246 242 238 234 229 227 226 226 228 230 232 233 233 233 235 235 235 236 237 238 241 245 248 252 255 259 263 267 268 270 271 273 274 275 275 275
Height
5859 5861 5862 5863 5864 5866 5868 5869 5870 5872 5872 5871 5871 5873 5873 5872 5873 5873 5872 5870 5869 5871 5871 5871 5873 5874 5874 5875 5874 5874 5877 5877 5878 5879 5880 5882 5884 5884 5885 5886 5888 5890 5891 5893 5894 5896 5897 5898 5900 5901 5903 5904 5905 5907 5908 5909 5911 5912 5914 5915 5916 5917 5918
5857 5859 5861 5863 5863 5864 5866 5868 5870 5870 5868 5866 5866 5868 5870 5870 5870 5872 5873 5872 5870 5869 5869 5869 5872 5871 5870 5872 5871 5872 5874 5877 5877 5877 5878 5880 5882 5883 5884 5885 5886 5888 5889 5890 5892 5894 5895 5896 5898 5899 5901 5902 5903 5905 5907 5908 5909 5910 5912 5914 5915 5916 5917
5857 5858 5860 5861 5862 5862 5864 5864 5865 5866 5866 5865 5865 5865 5867 5869 5870 5870 5872 5873 5870 5866 5866 5868 5870 5869 5868 5869 5869 5869 5870 5873 5875 5876 5875 5877 5879 5881 5883 5883 5884 5886 5886 5887 5889 5891 5893 5894 5896 5897 5899 5900 5901 5903 5905 5907 5907 5908 5910 5912 5913 5914 5915
5857 5857 5858 5861 5861 5861 5861 5861 5863 5864 5863 5864 5865 5863 5864 5866 5868 5869 5871 5872 5868 5864 5865 5866 5868 5868 5866 5867 5867 5867 5867 5868 5873 5875 5874 5875 5877 5879 5880 5880 5882 5883 5884 5885 5886 5888 5890 5892 5895 5897 5898 5899 5899 5900 5902 5904 5905 5907 5909 5910 5911 5912 5914
5857 5857 5858 5860 5860 5859 5858 5859 5862 5862 5861 5862 5862 5862 5862 5863 5864 5866 5868 5867 5863 5862 5863 5863 5864 5865 5864 5865 5865 5866 5865 5866 5870 5874 5874 5874 5875 5877 5878 5878 5880 5881 5882 5883 5883 5885 5887 5890 5893 5895 5896 5897 5898 5900 5901 5902 5903 5905 5907 5909 5909 5910 5912
5858 5856 5855 5855 5856 5856 5856 5857 5858 5858 5858 5859 5859 5860 5861 5862 5864 5864 5865 5863 5859 5859 5861 5861 5862 5863 5862 5863 5863 5864 5865 5865 5866 5870 5872 5873 5873 5874 5876 5876 5877 5878 5879 5880 5881 5882 5885 5888 5890 5892 5893 5894 5896 5898 5899 5899 5900 5902 5904 5906 5907 5908 5910
5855 5853 5852 5853 5854 5854 5854 5855 5855 5855 5856 5856 5856 5857 5858 5859 5861 5862 5863 5862 5857 5856 5859 5859 5859 5860 5860 5861 5862 5862 5863 5863 5864 5866 5869 5870 5870 5871 5873 5874 5875 5875 5877 5878 5878 5880 5882 5885 5888 5890 5891 5892 5894 5895 5896 5896 5898 5900 5902 5903 5904 5907 5909
5851 5850 5850 5851 5852 5852 5853 5853 5853 5853 5854 5853 5853 5854 5854 5855 5857 5857 5859 5859 5854 5854 5856 5856 5857 5858 5858 5859 5860 5861 5861 5862 5862 5864 5866 5867 5868 5868 5869 5871 5872 5874 5875 5876 5877 5878 5879 5881 5884 5886 5888 5889 5891 5893 5893 5894 5895 5897 5900 5902 5903 5904 5906
5851 5850 5850 5850 5849 5850 5851 5851 5850 5850 5851 5851 5851 5851 5852 5853 5853 5853 5854 5854 5851 5851 5852 5852 5854 5855 5856 5857 5858 5859 5860 5860 5861 5862 5863 5865 5865 5866 5867 5869 5870 5872 5873 5874 5875 5876 5877 5878 5879 5882 5884 5886 5888 5890 5891 5892 5893 5894 5896 5899 5901 5903 5904
5851 5850 5848 5848 5847 5847 5849 5848 5847 5847 5848 5849 5849 5849 5850 5850 5850 5850 5850 5848 5847 5848 5849 5849 5850 5851 5854 5855 5855 5856 5858 5859 5860 5860 5861 5863 5863 5863 5864 5866 5868 5870 5871 5872 5873 5874 5875 5875 5876 5878 5881 5882 5884 5886 5887 5889 5890 5892 5894 5897 5899 5901 5901
5846 5845 5845 5845 5845 5845 5846 5846 5845 5845 5846 5846 5847 5847 5847 5846 5847 5847 5846 5845 5846 5847 5846 5846 5847 5848 5850 5852 5853 5854 5855 5856 5858 5859 5860 5861 5862 5862 5863 5864 5865 5867 5868 5869 5870 5871 5872 5873 5874 5875 5878 5880 5881 5883 5884 5885 5887 5889 5892 5894 5896 5899 5900
5842 5841 5842 5843 5843 5843 5843 5843 5843 5843 5843 5844 5844 5845 5844 5843 5844 5844 5842 5842 5843 5843 5842 5843 5844 5845 5846 5848 5850 5852 5853 5854 5855 5857 5858 5859 5860 5862 5862 5862 5863 5864 5866 5866 5866 5867 5869 5871 5873 5874 5875 5877 5878 5879 5881 5882 5884 5886 5888 5890 5892 5895 5897
5839 5839 5840 5840 5840 5840 5840 5840 5841 5840 5841 5841 5841 5842 5841 5840 5841 5841 5839 5839 5840 5839 5840 5841 5841 5842 5843 5844 5847 5850 5851 5851 5853 5855 5856 5857 5858 5860 5861 5861 5862 5862 5863 5864 5864 5864 5865 5867 5869 5871 5873 5874 5875 5876 5878 5879 5881 5883 5885 5887 5889 5890 5892
5836 5836 5837 5837 5837 5838 5838 5838 5838 5838 5838 5838 5838 5838 5838 5837 5838 5838 5837 5837 5837 5838 5839 5838 5838 5840 5841 5841 5843 5846 5846 5848 5850 5853 5854 5855 5856 5857 5859 5860 5860 5861 5862 5863 5863 5863 5863 5864 5865 5867 5869 5871 5872 5873 5873 5875 5877 5879 5882 5883 5885 5887 5888
5834 5834 5834 5835 5835 5835 5835 5835 5835 5835 5835 5835 5835 5835 5835 5835 5834 5834 5834 5833 5833 5836 5837 5835 5836 5837 5838 5838 5840 5841 5842 5845 5848 5851 5852 5853 5854 5855 5857 5858 5858 5859 5861 5862 5862 5862 5863 5863 5863 5864 5865 5867 5869 5869 5870 5871 5872 5874 5877 5879 5881 5883 5885
5833 5832 5832 5832 5833 5833 5833 5833 5832 5833 5832 5832 5832 5832 5832 5833 5832 5830 5831 5830 5830 5832 5833 5833 5833 5834 5835 5836 5837 5838 5840 5843 5845 5848 5850 5851 5852 5853 5854 5855 5855 5856 5857 5859 5859 5860 5861 5861 5861 5861 5862 5864 5866 5867 5867 5867 5867 5868 5871 5874 5878 5880 5881
5833 5831 5829 5830 5831 5831 5831 5830 5829 5830 5830 5829 5830 5830 5830 5831 5830 5828 5828 5828 5827 5828 5829 5829 5830 5831 5832 5833 5834 5835 5837 5840 5842 5845 5846 5848 5849 5850 5851 5851 5852 5853 5854 5855 5857 5858 5858 5859 5859 5859 5859 5860 5862 5863 5863 5862 5861 5863 5866 5870 5874 5876 5877
5831 5829 5827 5828 5829 5829 5828 5827 5827 5827 5827 5827 5828 5828 5827 5828 5827 5826 5826 5826 5825 5826 5826 5826 5827 5828 5829 5830 5831 5832 5834 5836 5839 5841 5842 5844 5846 5848 5848 5847 5846 5847 5849 5851 5853 5854 5855 5855 5856 5857 5857 5857 5858 5859 5860 5859 5858 5859 5863 5867 5870 5872 5873
5827 5825 5825 5826 5827 5826 5825 5824 5825 5825 5825 5826 5826 5825 5825 5825 5824 5823 5823 5823 5822 5823 5823 5823 5824 5825 5826 5827 5828 5829 5830 5833 5835 5837 5838 5840 5842 5844 5846 5846 5843 5841 5843 5846 5848 5850 5851 5852 5853 5853 5854 5854 5855 5856 5857 5858 5858 5858 5860 5864 5867 5868 5870
5823 5823 5824 5824 5824 5823 5822 5822 5823 5823 5824 5824 5824 5823 5823 5822 5821 5820 5820 5819 5819 5820 5820 5820 5821 5823 5823 5824 5825 5826 5828 5830 5831 5831 5833 5835 5838 5840 5842 5845 5843 5840 5840 5842 5844 5845 5847 5848 5850 5850 5851 5852 5852 5852 5853 5855 5857 5858 5858 5860 5862 5864 5866
5820 5821 5822 5821 5821 5821 5819 5819 5821 5821 5821 5821 5821 5821 5820 5819 5818 5818 5818 5817 5816 5816 5817 5817 5819 5820 5821 5822 5822 5823 5825 5825 5825 5827 5828 5828 5830 5833 5836 5839 5840 5838 5838 5841 5842 5843 5844 5845 5847 5848 5849 5850 5851 5851 5851 5852 5855 5856 5857 5858 5859 5860 5861
5817 5819 5819 5819 5820 5819 5817 5816 5818 5819 5819 5819 5819 5818 5818 5816 5815 5815 5815 5815 5814 5814 5814 5815 5817 5818 5818 5819 5820 5821 5822 5822 5822 5824 5825 5823 5823 5828 5831 5834 5835 5837 5838 5840 5841 5841 5842 5843 5844 5846 5847 5848 5849 5850 5850 5851 5852 5854 5855 5856 5857 5857 5858
5815 5816 5817 5817 5817 5815 5813 5814 5816 5816 5817 5817 5816 5815 5815 5814 5813 5813 5813 5812 5812 5812 5812 5813 5814 5815 5815 5816 5816 5817 5819 5819 5820 5822 5824 5823 5823 5826 5829 5831 5833 5835 5837 5839 5840 5840 5841 5842 5843 5844 5845 5846 5847 5848 5849 5849 5850 5851 5852 5854 5855 5855 5855
5813 5814 5814 5815 5814 5812 5811 5812 5813 5814 5814 5814 5814 5814 5812 5812 5811 5811 5811 5810 5810 5810 5810 5810 5811 5812 5812 5813 5813 5814 5816 5817 5818 5820 5822 5823 5823 5824 5826 5829 5831 5833 5835 5837 5838 5839 5840 5841 5841 5842 5843 5844 5845 5846 5847 5848 5848 5848 5849 5851 5852 5853 5853
5811 5811 5812 5813 5811 5809 5809 5810 5810 5811 5812 5812 5812 5811 5811 5810 5810 5810 5809 5809 5808 5808 5808 5808 5807 5808 5809 5809 5810 5811 5813 5814 5815 5817 5819 5821 5821 5821 5824 5826 5828 5831 5833 5835 5836 5837 5838 5839 5840 5841 5841 5843 5843 5844 5845 5845 5846 5846 5847 5848 5849 5850 5851
5809 5809 5809 5809 5808 5806 5807 5808 5808 5809 5809 5809 5809 5809 5809 5809 5808 5807 5807 5808 5807 5806 5805 5805 5805 5805 5806 5806 5807 5809 5811 5812 5813 5815 5817 5819 5820 5821 5822 5824 5826 5828 5830 5832 5834 5835 5836 5837 5838 5839 5840 5840 5841 5841 5842 5843 5844 5844 5844 5845 5846 5847 5848
5806 5806 5806 5806 5804 5804 5805 5806 5805 5806 5806 5806 5806 5807 5807 5807 5807 5806 5806 5806 5806 5805 5803 5803 5803 5804 5804 5804 5805 5806 5808 5809 5811 5813 5815 5817 5819 5820 5821 5823 5824 5826 5827 5829 5831 5832 5834 5835 5836 5837 5837 5838 5839 5839 5839 5840 5841 5842 5842 5843 5843 5844 5845
5803 5803 5802 5802 5801 5801 5802 5803 5803 5803 5804 5804 5804 5804 5805 5805 5805 5804 5804 5803 5803 5802 5801 5800 5801 5801 5802 5802 5803 5804 5806 5807 5808 5810 5812 5814 5816 5817 5819 5821 5822 5823 5825 5826 5828 5829 5831 5832 5833 5834 5835 5835 5836 5836 5837 5837 5838 5839 5840 5841 5841 5842 5842
5798 5798 5798 5798 5799 5799 5800 5800 5800 5801 5801 5801 5802 5802 5802 5802 5802 5802 5802 5802 5801 5800 5799 5799 5799 5799 5800 5800 5801 5802 5803 5804 5805 5807 5809 5811 5813 5814 5816 5817 5819 5820 5822 5823 5825 5826 5828 5829 5830 5831 5832 5832 5833 5833 5834 5835 5835 5836 5837 5837 5838 5839 5839
5794 5795 5795 5796 5797 5797 5797 5798 5798 5798 5799 5799 5799 5799 5799 5800 5800 5800 5800 5800 5799 5799 5799 5798 5798 5798 5798 5799 5799 5800 5800 5801 5803 5804 5805 5807 5809 5811 5813 5814 5815 5817 5819 5820 5822 5823 5824 5826 5827 5828 5828 5829 5829 5830 5831 5831 5832 5833 5834 5834 5835 5835 5836
5792 5792 5792 5793 5794 5795 5795 5796 5796 5796 5796 5797 5797 5797 5797 5798 5797 5797 5797 5797 5797 5798 5797 5797 5797 5797 5797 5797 5798 5798 5798 5799 5800 5801 5803 5804 5806 5808 5809 5811 5812 5814 5816 5817 5818 5820 5821 5822 5823 5824 5824 5825 5825 5826 5827 5828 5829 5829 5830 5831 5831 5832 5832
5790 5789 5790 5791 5792 5792 5793 5793 5793 5794 5794 5794 5795 5795 5795 5795 5795 5795 5795 5795 5795 5796 5796 5796 5796 5795 5795 5796 5796 5797 5797 5797 5798 5799 5800 5801 5803 5804 5806 5808 5809 5811 5812 5814 5815 5816 5817 5818 5819 5820 5821 5821 5822 5822 5823 5824 5825 5826 5827 5827 5828 5829 5829
5787 5787 5788 5789 5789 5789 5790 5791 5791 5791 5792 5792 5792 5793 5793 5793 5793 5793 5793 5793 5793 5794 5794 5794 5794 5794 5794 5794 5795 5795 5795 5796 5796 5797 5798 5799 5800 5801 5803 5804 5806 5807 5809 5810 5811 5812 5813 5815 5816 5816 5817 5818 5818 5819 5819 5820 5821 5822 5823 5824 5825 5825 5826
5784 5784 5784 5786 5786 5787 5787 5788 5789 5789 5790 5790 5790 5790 5791 5791 5791 5791 5791 5791 5791 5792 5792 5793 5793 5793 5793 5793 5793 5793 5794 5794 5795 5795 5796 5797 5798 5799 5800 5802 5803 5804 5806 5807 5808 5809 5810 5811 5812 5813 5813 5814 5815 5816 5816 5817 5818 5819 5819 5820 5821 5822 5822
5782 5780 5781 5782 5783 5784 5784 5785 5786 5787 5788 5788 5788 5788 5789 5789 5789 5789 5789 5789 5790 5790 5791 5791 5791 5791 5791 5792 5792 5792 5792 5793 5793 5794 5794 5795 5796 5797 5798 5799 5800 5802 5803 5804 5805 5806 5807 5808 5809 5810 5810 5811 5812 5812 5813 5814 5814 5815 5816 5817 5817 5818 5818
5778 5778 5779 5780 5781 5781 5782 5783 5784 5785 5785 5786 5786 5787 5787 5787 5788 5788 5788 5788 5788 5788 5789 5789 5789 5789 5790 5790 5790 5791 5791 5792 5792 5792 5793 5794 5794 5795 5796 5797 5798 5799 5801 5802 5803 5804 5804 5805 5806 5807 5808 5808 5809 5809 5810 5811 5812 5812 5813 5813 5814 5814 5815
5776 5776 5777 5778 5778 5778 5780 5781 5782 5782 5783 5784 5784 5785 5785 5786 5786 5786 5786 5787 5787 5787 5787 5787 5788 5788 5788 5789 5789 5789 5790 5790 5790 5791 5791 5792 5792 5793 5794 5795 5796 5797 5799 5800 5801 5802 5802 5803 5804 5804 5805 5805 5806 5807 5807 5808 5809 5809 5810 5810 5810 5811 5811